Regional Weather Roundup
Issued by NWS

Home | Current Version | Previous Version | Graphics & Text | Print | Product List | Glossary On
Versions: 1 2 3 4 5 6 7 8 9 10 11 12 13 14 15 16 17 18 19 20 21 22 23 24 25 26 27 28
000
ASUS45 KTFX 300110
RWRMT
MONTANA REGIONAL WEATHER ROUNDUP
NATIONAL WEATHER SERVICE GREAT FALLS MT
700 PM MDT FRI JUL 29 2016

NOTE: "FAIR" INDICATES FEW OR NO CLOUDS BELOW 12000 FEET WITH NO
SIGNIFICANT WEATHER AND/OR OBSTRUCTIONS TO VISIBILITY.

MTZ001>007-043-300200-
WEST OF THE DIVIDE

CITY           SKY/WX    TMP DP  RH WIND       PRES   REMARKS
KALISPELL      MOSUNNY   86  53  32 SE10      29.89F
MISSOULA       SUNNY     93  43  17 W5        29.90F
BUTTE          CLOUDY    85  40  20 NW7       30.06F
MULLAN PASS    MOSUNNY   77  45  32 CALM      30.14F
ANACONDA         N/A     82  46  28 N5        30.02F
DEER LODGE       N/A     84  45  24 NW5       30.03F
EUREKA           N/A     90  46  22 W6        29.87F
HAMILTON         N/A     86  50  28 NW6       29.93S
LIBBY            N/A     93  43  17 W5        29.86F
PLAINS           N/A     96  47  18 CALM      29.87F HX  92
RONAN            N/A     91  48  22 MISG      29.97F
THOMPSON FALLS   N/A     94  48  20 W3        29.90F HX  90
$$

MTZ008-052>055-300200-
SOUTHWEST MONTANA

CITY           SKY/WX    TMP DP  RH WIND       PRES   REMARKS
BOZEMAN        SUNNY     88  43  20 CALM      29.99F
DILLON         SUNNY     87  41  19 NE8       30.00F
W YELLOWSTONE  SUNNY     81  30  16 N7        30.14F
ENNIS          SUNNY     86  37  17 N8        30.08F
THREE FORKS      N/A     88  88 100 CALM      29.98F HX 121
TWIN BRIDGES     N/A     88  43  20 W2        29.99F
$$

MTZ009-010-012-014-046-048-049-054-300200-
EAST SLOPES AND CENTRAL MONTANA

CITY           SKY/WX    TMP DP  RH WIND       PRES   REMARKS
CUT BANK         N/A     82  50  32 E8        29.98F
GREAT FALLS    SUNNY     85  45  24 E9G20     29.97F
MALMSTROM AFB  SUNNY     84  46  26 E10       29.97F
HELENA         SUNNY     89  42  19 SE3       29.93F
CHOTEAU          N/A     84  48  28 E9        30.01F
CONRAD           N/A     83  53  35 N3        30.02F
$$

MTZ011-013-016-021-045-047-050-051-300200-
NORTH CENTRAL MONTANA

CITY           SKY/WX    TMP DP  RH WIND       PRES   REMARKS
HAVRE          SUNNY     85  50  29 E7        29.94F
LEWISTOWN      SUNNY     81  52  36 NE6       30.04F
N BAR RANCH    CLOUDY    77  48  36 E7        30.08S
CHINOOK          N/A     84  54  34 CALM      29.94F
$$

MTZ017>020-022>027-061-062-300200-
NORTHEAST MONTANA

CITY           SKY/WX    TMP DP  RH WIND       PRES   REMARKS
GLASGOW        MOSUNNY   78  57  48 E9        29.94F
JORDAN           N/A     83  54  36 E5        29.96F
SIDNEY         SUNNY     80  44  27 NE5       29.96F
WOLF POINT     SUNNY     82  50  32 CALM      29.96F
PLENTYWOOD       N/A     73  59  60 CALM      29.98F
POPLAR           N/A     81  48  32 CALM      29.96F
SCOBEY           N/A     77  50  38 SE5       29.98S
$$

MTZ028>42-056>058-300200-
SOUTHCENTRAL AND SOUTHEAST MONTANA

CITY           SKY/WX    TMP DP  RH WIND       PRES   REMARKS
BAKER          SUNNY     80  54  40 NW6       29.99F
BILLINGS       MOSUNNY   85  48  27 E12       29.98S
LIVINGSTON     SUNNY     85  47  26 E17G24    30.01
MILES CITY     SUNNY     81  53  37 NE9       29.96F
EKALAKA          N/A     78  50  37 N5        30.00F
FORSYTH          N/A     82  55  39 E13       29.95F
LAUREL           N/A     85  48  27 NE7       29.98S
ROUNDUP          N/A     84  49  29 MISG      29.92F
$$

REGIONAL REPORTS...DAKOTAS

CITY           SKY/WX    TMP DP  RH WIND       PRES   REMARKS
WILLISTON      MOSUNNY   80  48  32 CALM      29.97S
MINOT          MOSUNNY   81  57  43 SW8       29.96F
DICKINSON      SUNNY     76  56  49 NE7       29.96F
BEACH            N/A     77  54  44 NW3       30.01F
CROSBY           N/A     73  54  49 SW3       29.98F
WATFORD CITY     N/A    N/A N/A N/A MISG        N/A
BISMARCK       MOSUNNY   77  62  59 S12       29.97F
GRAND FORKS    PTCLDY    78  56  46 E3        29.97F
FARGO          CLEAR     77  61  57 NE3       29.99S
BUFFALO SD       N/A     81  51  35 VRB3      29.92F
RAPID CITY     SUNNY     76  55  48 VRB3      30.01F
$$

REGIONAL REPORTS...WYOMING/IDAHO/WASHINGTON

CITY           SKY/WX    TMP DP  RH WIND       PRES   REMARKS
GILLETTE       SUNNY     82  45  27 NE12      30.03S
SHERIDAN       SUNNY     87  45  23 CALM      29.99F
BUFFALO WY     CLOUDY    80  49  33 SW7       30.08S
CODY           MOSUNNY   70  55  60 N5        30.08R
YELLOWSTONE LA   N/A     73  33  23 VRB5      30.25S
IDAHO FALLS    SUNNY     91  34  13 SE10      29.97F
SALMON         SUNNY     91  43  18 N5        29.85F
BOISE          SUNNY     99  35  10 NW12      29.82F HX  93
SPOKANE        MOSUNNY   96  42  15 S10       29.84F HX  92
$$

REGIONAL REPORTS...ALBERTA

CITY           SKY/WX    TMP DP  RH WIND       PRES   REMARKS
EDMONTON       MOSUNNY   81  48  32 SW6       29.83F
CALGARY        MOSUNNY   77  54  44 SE20G26   29.93F
LETHBRIDGE     MOSUNNY   81  55  41 E8        29.93F
MEDICINE HAT   MOSUNNY   90  55  31 S5        29.92F
WATERTON GATE    N/A     77  57  50 NE3         N/A
MILK RIVER       N/A     81  50  34 E5          N/A
$$

REGIONAL REPORTS...SASKATCHEWAN

CITY           SKY/WX    TMP DP  RH WIND       PRES   REMARKS
SWIFT CURRENT  SUNNY     75  57  53 N9        29.95F
REGINA         PTSUNNY   73  63  68 S10       29.93F
SASKATOON      MOSUNNY   73  59  60 S6        29.90F
VAL MARIE        N/A     79  52  38 NW1         N/A
ROCKGLEN         N/A     73  55  53 S8          N/A
ASSINIBOIA       N/A    N/A N/A N/A S9          N/A
$$




USA.gov is the U.S. government's official web portal to all federal, state and local government web resources and services.